Index of /observatory/weather/Observatory_weather

[ICO]NameLast modifiedSizeDescription

[DIR]Parent Directory  -  
[TXT]radiation.txt24-Aug-2013 15:40 1.6M 
[IMG]SchPhyAst_colour.jpg12-Sep-2013 17:33 24K 
[IMG]test.png24-Nov-2017 13:58 77K 
[IMG]quicklook_data_1h.png14-Dec-2017 17:08 39K 
[IMG]quicklook_data_0.1h.png14-Dec-2017 17:15 38K 
[DIR]reports/14-Feb-2018 13:55 -  
[TXT]201707.txt21-Feb-2018 15:01 183K 
[TXT]201705.txt21-Feb-2018 15:10 1.1M 
[TXT]201706.txt21-Feb-2018 15:10 351K 
[DIR]archive/21-Feb-2018 15:20 -  
[TXT]2015.txt13-Mar-2018 12:42 11M 
[VID]movie.avi13-Jul-2018 00:01 6.2M 
[IMG]DCAMImage.jpg24-Jul-2018 13:16 249K 
[IMG]obs_rollover.jpg29-Aug-2018 13:30 343K 
[   ]obs_rollover.xcf29-Aug-2018 13:34 4.5M 
[IMG]quicklook_data_2h.png21-Sep-2018 15:22 154K 
[IMG]quicklook_data_12h.png21-Sep-2018 15:22 161K 
[IMG]quicklook_data_48h.png21-Sep-2018 15:22 174K 
[IMG]quicklook_data_96h.png21-Sep-2018 15:22 174K 
[TXT]radiation2012.txt21-Sep-2018 15:25 221K 
[TXT]Current_Conditions.htm21-Sep-2018 15:25 2.7K 
[TXT]Current_Vantage_Pro.htm21-Sep-2018 15:25 13K 
[TXT]data.htm21-Sep-2018 15:25 349  
[TXT]Monthly_Vantage_Pro.htm21-Sep-2018 15:25 11K 
[TXT]Observatory_weather.htm21-Sep-2018 15:25 18K 
[TXT]Tag-List.htm21-Sep-2018 15:25 8.4K 
[IMG]InsideTemp.gif21-Sep-2018 15:25 5.4K 
[IMG]OutsideTemp.gif21-Sep-2018 15:25 5.4K 
[IMG]InsideHeatIndex.gif21-Sep-2018 15:25 4.4K 
[IMG]HeatIndex.gif21-Sep-2018 15:25 5.3K 
[IMG]InsideHumidity.gif21-Sep-2018 15:25 5.5K 
[IMG]OutsideHumidity.gif21-Sep-2018 15:25 5.5K 
[IMG]InsideDewPoint.gif21-Sep-2018 15:25 4.4K 
[IMG]DewPoint.gif21-Sep-2018 15:25 5.2K 
[IMG]WindSpeed.gif21-Sep-2018 15:25 4.3K 
[IMG]10MinAvgWindSpeed.gif21-Sep-2018 15:25 4.4K 
[IMG]WindDirection.gif21-Sep-2018 15:25 4.5K 
[IMG]WindChill.gif21-Sep-2018 15:25 4.5K 
[IMG]Rain.gif21-Sep-2018 15:25 4.1K 
[IMG]RainStorm.gif21-Sep-2018 15:25 4.6K 
[IMG]MonthlyRain.gif21-Sep-2018 15:25 4.4K 
[IMG]YearlyRain.gif21-Sep-2018 15:25 5.1K 
[IMG]Barometer.gif21-Sep-2018 15:25 5.6K 
[IMG]RainRate.gif21-Sep-2018 15:25 5.8K 
[IMG]EMC.gif21-Sep-2018 15:25 4.2K 
[IMG]AirDensity.gif21-Sep-2018 15:25 4.9K 
[IMG]THW.gif21-Sep-2018 15:25 4.4K 
[IMG]InsideTempHistory.gif21-Sep-2018 15:25 9.7K 
[IMG]OutsideTempHistory.gif21-Sep-2018 15:25 11K 
[IMG]InsideHeatIndexHistory.gif21-Sep-2018 15:25 9.7K 
[IMG]HeatIndexHistory.gif21-Sep-2018 15:25 11K 
[IMG]InsideHumidityHistory.gif21-Sep-2018 15:25 10K 
[IMG]OutsideHumidityHistory.gif21-Sep-2018 15:25 10K 
[IMG]InsideDewPointHistory.gif21-Sep-2018 15:25 9.9K 
[IMG]DewPointHistory.gif21-Sep-2018 15:25 10K 
[IMG]WindSpeedHistory.gif21-Sep-2018 15:25 11K 
[IMG]HiWindSpeedHistory.gif21-Sep-2018 15:25 12K 
[IMG]WindDirectionHistory.gif21-Sep-2018 15:25 10K 
[IMG]WindChillHistory.gif21-Sep-2018 15:25 11K 
[IMG]RainHistory.gif21-Sep-2018 15:25 9.2K 
[IMG]BarometerHistory.gif21-Sep-2018 15:25 9.5K 
[IMG]RainRateHistory.gif21-Sep-2018 15:25 9.4K 
[IMG]ReceptionHistory.gif21-Sep-2018 15:25 13K 

Apache/2.2.14 (Ubuntu) Server at www.astro.gla.ac.uk Port 80